GFSFLT1_con_3kmhel_084.txt.gz
Helicity
124 120 92 95 90 93 80 16 37 50 97 144 188 214 362 265 196 165 63 150 185 80 148 87 117 132 68 16 14 26 15 9
127 136 111 107 100 125 107 34 36 44 87 129 150 194 243 240 244 198 265 222 -31 -6 52 20 92 21 1 11 17 35 16 32
147 148 123 115 102 131 98 23 25 60 63 125 115 208 180 263 336 266 166 39 -28 50 -2 67 48 30 -7 6 15 32 27 31
152 143 113 109 87 120 94 44 30 18 91 175 151 205 285 191 75 -9 -95 -155 -69 63 50 8 -20 -35 -2 -1 17 34 44 37
106 125 116 110 68 98 86 57 45 67 74 117 178 197 169 104 82 2 -53 -76 -23 -22 3 -2 5 19 7 19 27 31 35 38
82 116 105 83 68 73 101 104 77 67 92 97 113 180 98 118 119 146 85 93 0 -3 -4 -22 -12 -21 0 11 16 30 42 29
56 112 110 75 71 57 87 125 131 101 59 66 53 81 93 123 122 150 186 75 -84 -79 -85 -125 -96 -61 -38 1 23 37 50 47
58 115 112 85 89 69 73 95 115 121 90 17 -4 14 82 58 123 204 109 -39 -150 -157 -166 -147 -116 -32 4 22 34 32 36 50
65 83 100 72 78 84 75 90 77 106 96 81 50 51 41 22 -17 -8 -12 -38 -157 -184 -181 -131 -80 -27 4 30 34 32 62 79
49 73 78 62 54 84 88 84 68 99 113 91 81 69 56 34 32 55 -20 -55 -82 -134 -96 -78 -50 -11 16 47 57 52 75 79
41 56 74 61 35 52 67 71 60 63 66 56 46 67 52 27 22 34 22 -6 -49 -89 -88 -49 -31 15 39 49 62 72 103 123
69 39 50 50 38 46 56 50 52 49 42 33 23 26 46 51 44 33 31 3 -16 -23 -35 -13 12 36 65 94 100 103 121 119
45 67 96 87 61 52 58 66 55 51 52 49 41 32 34 42 59 82 93 83 70 51 33 14 12 24 61 88 104 147 131 165
35 39 63 97 79 60 67 74 76 67 68 80 68 45 40 32 27 41 41 62 73 47 58 66 72 71 71 60 74 134 187 191
9 23 47 74 86 81 81 71 81 85 89 92 80 72 52 39 21 3 18 40 -6 46 60 30 25 21 20 49 79 114 79 126
28 3 19 26 37 55 74 89 101 122 95 104 107 85 67 66 58 80 104 99 46 17 28 29 31 30 36 51 60 75 60 114
71 19 -4 6 35 22 31 57 80 91 72 75 73 71 64 43 48 93 70 40 26 35 57 45 11 33 90 124 135 152 237 313
42 73 21 -8 15 33 16 32 48 32 24 28 46 42 36 46 45 52 60 31 40 24 5 28 63 140 167 199 259 360 378 380
68 24 62 3 7 32 48 45 56 46 45 41 61 69 60 74 90 83 120 86 72 82 118 168 201 209 225 303 409 420 452 466

GFSFLT1_con_3kmhel_090.txt.gz
Helicity
141 158 266 214 287 349 253 175 210 234 263 237 165 200 271 320 417 498 612 766 751 524 580 438 217 187 164 143 69 80 32 25
205 249 336 234 401 318 251 195 242 240 229 157 158 211 319 416 501 449 620 980 734 552 404 303 185 160 180 63 61 39 17 19
219 373 334 230 364 267 227 176 219 203 160 128 164 186 204 318 518 796 779 744 621 479 389 334 218 176 261 62 49 115 76 50
287 403 310 200 355 266 203 154 204 214 203 221 295 273 214 163 141 218 103 164 243 214 197 290 193 162 16 57 78 83 59 52
271 335 309 207 266 261 182 161 211 220 248 210 206 144 161 131 169 134 205 233 306 313 272 94 16 5 40 47 33 -13 76 69
228 256 302 188 198 235 178 154 217 258 198 217 205 202 221 169 146 98 85 96 126 118 30 20 6 73 22 44 42 -15 26 53
156 238 296 197 175 214 194 160 218 281 268 199 207 219 229 180 121 75 134 118 20 18 71 42 -12 -12 -29 5 -4 45 -34 28
140 333 339 224 275 257 174 165 203 252 280 252 194 184 249 212 174 148 150 138 25 -85 -29 -24 -76 -68 -31 29 75 -70 -36 75
156 298 339 230 274 247 151 156 191 232 250 229 187 174 219 186 187 177 188 91 -9 -107 -142 -86 -47 -51 -63 -8 33 -21 -31 -31
95 192 336 247 249 231 193 145 177 191 193 171 192 175 150 163 181 172 210 129 6 -48 -61 -83 -93 -93 -75 26 34 -20 14 27
153 185 352 287 232 216 209 124 153 151 160 147 149 186 178 126 113 156 135 62 -67 -44 -23 -53 -90 -77 -28 -5 -7 44 63 83
145 172 349 275 220 225 202 148 135 178 147 127 131 147 178 163 173 119 95 53 -14 -32 -33 -12 -16 -7 -19 -19 7 56 61 84
56 178 291 250 239 222 192 158 139 153 161 118 104 97 110 123 125 150 127 79 52 16 33 5 -27 34 5 -4 -4 77 67 84
52 131 214 280 256 193 192 175 144 139 164 151 120 107 103 115 109 111 113 110 90 87 97 84 34 30 56 13 45 75 89 103
53 82 111 240 231 161 164 178 127 171 207 159 152 106 101 109 92 87 92 97 129 116 98 97 99 93 67 68 82 90 109 116
14 31 55 131 175 174 158 189 171 160 129 210 176 129 123 108 75 75 88 107 102 84 91 80 79 81 83 65 101 116 120 142
31 62 39 64 119 181 192 207 205 151 135 140 180 173 138 136 123 129 138 146 162 150 153 138 115 145 156 129 117 161 177 214
128 184 113 49 68 124 195 222 223 162 136 141 163 178 184 186 151 163 171 182 198 181 162 150 148 152 247 233 216 325 329 296
231 199 243 169 106 70 118 162 216 232 184 174 174 194 199 179 193 177 186 211 230 219 190 177 347 456 398 396 416 392 402 433

GFSFLT1_con_3kmhel_096.txt.gz
Helicity
316 435 452 502 448 422 339 279 265 233 213 205 210 199 165 105 109 124 131 144 167 209 137 140 152 155 167 181 200 174 203 216
407 516 524 518 478 459 369 343 293 271 223 227 199 158 120 134 90 130 119 142 219 215 194 155 244 241 163 188 213 152 188 219
424 538 538 517 525 421 376 330 296 246 189 207 142 108 114 94 102 104 112 186 309 298 232 300 262 313 207 200 212 256 257 188
420 523 541 555 534 424 389 325 298 255 205 247 145 134 116 115 114 103 121 133 209 270 354 501 280 378 343 229 195 210 181 236
409 579 587 527 512 397 357 331 301 246 238 235 154 112 134 128 147 199 231 150 175 309 456 507 324 543 344 186 161 187 219 245
397 455 573 559 510 392 342 325 272 231 221 205 142 114 108 134 183 241 284 308 305 322 439 600 618 502 437 213 234 210 183 168
288 513 639 590 452 363 344 305 247 218 207 180 142 128 115 134 158 172 217 418 600 679 722 668 602 544 432 304 202 197 180 226
340 497 570 493 408 389 347 271 239 202 184 167 139 127 106 86 104 84 138 253 370 637 593 578 464 319 301 174 210 215 135 53
339 405 547 460 401 360 320 251 232 204 168 147 140 105 64 40 34 46 78 71 106 126 215 273 274 242 169 198 190 170 63 74
297 342 450 393 362 325 298 236 212 195 162 137 133 92 92 86 42 62 100 101 148 209 266 302 334 301 185 159 135 40 72 57
252 305 317 305 304 321 237 206 217 186 175 153 133 99 49 94 59 51 81 84 120 147 139 158 206 146 79 -37 -11 57 81 47
175 224 212 277 332 314 231 199 218 188 188 185 134 131 101 50 108 71 94 99 87 63 83 72 30 -8 -73 -118 -87 13 93 58
100 132 223 290 304 296 259 212 210 207 203 202 150 133 147 143 69 110 101 107 94 58 41 30 3 -30 -60 -51 -27 15 40 -3
42 168 220 280 278 272 261 210 196 193 228 207 166 140 139 145 143 97 112 109 101 85 58 42 -20 -22 -31 -53 -16 36 68 56
30 128 153 250 266 262 266 227 211 206 204 221 189 172 166 109 97 115 132 116 96 94 76 31 -2 -31 -26 -10 9 43 76 99
60 122 160 194 209 201 222 229 227 210 191 190 199 172 173 169 122 93 82 97 103 98 86 52 21 17 16 15 3 -11 10 48
117 94 109 122 148 191 212 232 212 215 188 184 189 183 170 189 163 152 127 93 57 74 104 91 61 41 11 24 47 61 76 82
246 366 354 292 189 92 122 149 145 160 189 201 190 194 185 183 182 161 154 150 126 100 74 72 67 76 91 111 122 138 140 144
247 350 279 278 323 310 155 96 185 232 196 198 208 204 179 175 168 159 143 156 162 151 124 114 103 87 93 105 126 174 298 340

GFSFLT1_con_3kmhel_099.txt.gz
Helicity
16 160 340 426 493 487 526 413 330 249 230 242 252 249 220 216 180 145 123 151 160 214 216 154 206 244 139 212 295 279 216 199
-26 79 354 456 474 508 523 423 328 308 272 288 263 259 257 223 155 120 113 165 203 220 251 226 220 194 73 205 317 302 261 254
34 138 312 380 482 514 519 380 314 303 266 261 267 249 214 184 116 72 94 152 253 197 209 201 171 87 120 191 303 370 325 209
113 180 279 396 445 518 511 359 287 293 283 327 283 258 192 126 67 60 75 108 299 215 238 164 169 134 150 191 311 332 328 290
106 238 282 362 407 512 475 327 281 286 304 276 227 215 240 145 48 49 71 117 153 219 244 215 307 239 306 215 249 330 353 324
82 216 272 376 485 545 484 338 278 298 296 232 237 247 240 166 97 63 72 75 99 215 311 350 432 380 292 438 202 277 288 335
56 169 282 412 427 489 442 344 281 275 243 196 224 249 261 195 105 101 111 137 155 166 290 476 528 511 371 447 400 299 280 231
92 145 255 412 492 411 391 313 296 249 211 183 201 233 226 152 92 104 123 184 228 251 240 369 594 468 531 391 622 354 191 297
114 113 313 398 468 392 358 284 299 225 195 165 180 207 163 109 86 123 125 158 247 266 359 407 477 573 630 481 439 241 257 198
109 143 307 392 369 376 347 290 269 194 156 165 166 186 160 133 79 65 107 158 188 202 315 494 662 612 557 532 293 241 291 164
121 170 277 312 318 311 309 221 237 171 131 148 148 151 152 140 108 39 84 89 94 147 192 174 280 314 168 212 229 149 211 133
254 164 106 125 199 276 281 224 200 150 122 144 142 137 163 186 133 93 71 104 101 106 150 238 340 348 297 239 153 120 85 -31
294 167 104 91 42 188 233 231 190 126 98 132 141 134 166 163 144 111 129 112 110 108 130 145 152 242 264 170 129 106 -32 -80
234 69 157 91 65 84 199 220 180 137 94 120 146 145 158 156 142 138 103 113 128 120 120 99 80 60 65 80 39 -91 -201 -166
381 149 109 131 157 125 129 202 199 159 122 110 156 163 154 134 159 145 126 103 126 134 161 122 107 64 35 -16 -49 -106 -107 -65
270 222 188 136 119 129 101 146 178 159 122 122 120 166 164 133 133 167 159 134 106 125 118 122 124 110 93 54 30 39 57 61
164 214 290 178 100 121 134 130 146 158 147 138 121 136 163 158 135 128 150 159 145 135 122 86 90 95 70 83 78 81 113 115
94 110 177 245 220 184 96 133 153 142 143 165 154 150 167 165 149 135 134 160 150 140 132 118 99 87 62 53 57 60 68 83
80 64 121 192 178 130 93 87 93 106 98 137 138 158 164 160 146 157 152 142 155 148 135 133 101 83 106 119 118 130 139 147

GFSFLT1_con_3kmhel_105.txt.gz
Helicity
73 71 70 70 64 72 136 172 216 317 351 293 273 285 263 246 217 190 149 172 145 121 127 176 318 259 290 179 233 324 152 122
68 50 59 65 60 54 96 167 224 344 367 354 322 309 275 272 239 198 192 200 206 183 146 169 166 277 390 426 390 419 192 157
141 102 34 22 31 33 58 119 185 250 312 339 320 314 261 267 243 208 199 194 220 157 149 163 175 265 546 387 515 419 323 131
156 120 99 31 47 45 40 61 139 157 257 352 326 323 289 288 247 229 202 213 211 150 174 236 281 365 560 847 552 382 432 215
116 113 88 64 59 48 49 63 116 146 286 318 272 244 236 250 233 218 244 220 201 159 184 261 248 342 474 658 424 308 324 257
88 99 103 86 23 34 60 98 77 163 267 266 264 202 190 209 217 205 223 176 142 179 199 213 308 244 246 184 150 181 276 232
62 64 63 64 -35 -2 41 74 92 175 251 276 273 193 190 201 197 186 200 157 147 159 162 174 288 255 293 278 253 392 379 166
37 60 61 95 74 1 17 66 122 168 236 275 239 170 177 170 165 179 190 151 97 164 174 220 193 245 221 282 330 223 119 118
-10 14 52 56 110 8 -1 84 122 178 217 206 187 162 171 162 154 138 109 96 107 120 152 187 204 284 339 331 356 315 207 165
-45 -3 44 50 85 19 2 85 129 165 146 182 133 164 158 139 123 110 64 50 66 120 184 220 218 241 387 342 338 450 324 391
-30 19 26 80 73 26 -43 60 144 168 154 92 104 142 128 112 111 89 67 65 46 68 135 180 220 272 332 390 514 395 651 297
-66 62 -67 69 90 29 -22 68 145 152 123 73 115 119 99 94 79 69 70 75 28 65 114 147 146 160 254 376 423 587 545 445
-22 47 126 195 82 56 93 143 136 145 118 91 121 93 76 75 49 52 76 76 17 60 97 101 109 127 206 297 346 336 397 504
-87 28 216 410 86 156 162 117 131 126 117 112 122 71 64 51 23 36 66 94 60 39 95 71 74 107 155 217 274 268 280 398
-106 -88 236 528 173 196 96 91 123 136 117 95 90 70 49 52 23 24 52 82 98 82 102 98 99 126 172 201 193 192 171 109
-127 -122 220 497 337 192 16 95 129 136 112 83 73 61 53 47 29 23 42 78 95 87 105 123 153 157 163 237 164 152 202 207
44 -16 53 410 459 280 203 151 172 123 87 67 67 67 54 39 32 23 37 45 58 103 119 127 120 129 176 178 206 221 187 189
8 16 71 250 333 347 318 235 150 106 95 69 74 81 63 46 30 24 26 43 50 63 78 100 116 102 147 157 140 97 112 124
-34 -14 59 209 268 366 285 242 216 193 165 149 120 135 102 76 42 26 23 36 66 72 80 106 112 113 124 130 149 112 74 58

GFSFLT1_con_3kmhel_108.txt.gz
Helicity
51 99 116 92 91 78 78 82 86 98 179 220 201 222 224 207 191 190 164 167 167 161 140 174 191 195 238 257 328 419 717 417
99 117 113 110 83 70 55 69 88 97 231 255 258 287 264 223 208 176 177 173 160 166 181 196 189 226 303 253 346 649 575 363
107 128 139 122 86 90 78 67 60 76 181 230 181 270 212 187 217 176 176 171 153 191 212 202 200 242 247 194 278 211 217 266
146 142 125 105 102 79 66 58 43 68 88 182 166 229 217 243 234 213 187 175 167 207 213 194 166 193 246 308 399 560 483 324
141 144 138 129 129 97 60 58 60 73 49 187 187 284 265 178 187 200 196 194 180 206 184 137 133 207 198 305 448 629 447 309
92 94 99 84 63 93 64 55 75 73 71 178 150 134 144 142 143 178 217 208 200 228 207 199 132 155 212 289 455 452 516 503
42 46 51 75 68 38 59 55 62 69 103 137 82 101 168 197 177 197 226 212 237 231 202 181 134 189 215 302 426 592 461 306
61 62 55 45 69 71 43 53 63 58 106 103 80 98 143 134 146 175 197 218 241 218 198 168 171 192 185 242 283 360 104 199
10 23 18 27 51 72 88 52 55 56 91 101 120 120 131 120 144 166 158 176 164 180 172 138 159 195 206 206 179 34 151 289
26 43 15 33 60 60 76 62 56 66 85 130 137 108 118 109 115 131 128 136 122 96 135 138 134 185 250 283 268 202 286 288
20 16 37 20 33 -38 16 59 81 31 93 169 163 102 89 103 117 99 114 112 76 58 91 131 148 179 247 316 292 297 328 310
14 9 -2 29 -1 37 18 65 90 22 104 176 161 86 76 104 89 84 113 89 52 39 57 115 148 169 189 226 302 451 386 317
18 -35 -43 37 -38 142 114 57 66 22 95 138 145 91 87 98 79 82 103 72 43 35 63 47 59 126 142 231 213 289 247 305
28 -42 -20 34 11 161 123 45 34 63 102 173 143 117 97 81 66 91 83 66 31 36 47 51 41 74 118 163 190 240 282 308
24 -0 -4 36 5 169 361 74 88 162 135 193 179 123 84 70 63 88 59 66 30 34 32 57 53 60 72 107 145 205 226 299
11 -18 43 110 -54 210 459 108 144 181 224 188 146 103 82 62 64 69 49 45 36 27 25 34 32 42 66 91 132 109 114 116
6 -3 59 40 -78 198 402 191 181 117 179 182 140 101 89 87 76 65 59 39 29 39 28 24 26 14 55 95 116 97 100 87
13 -8 52 22 35 169 298 325 126 94 187 173 85 74 82 94 87 71 58 39 35 39 37 40 48 52 95 109 128 137 158 131
27 6 18 -1 88 191 360 340 241 263 265 188 131 92 84 91 83 69 56 47 42 42 46 47 39 46 98 114 122 131 188 197

GFSFLT1_con_3kmhel_114.txt.gz
Helicity
30 48 35 82 85 71 145 213 234 292 223 118 152 202 184 211 230 218 259 150 160 163 169 202 265 215 252 268 256 200 231 258
67 128 106 90 146 196 205 170 165 253 293 219 170 215 271 248 262 296 242 160 183 163 179 204 322 325 308 283 252 241 245 170
62 60 206 202 216 195 217 217 195 212 222 220 185 160 273 287 312 241 141 125 160 157 215 239 345 351 302 284 284 282 207 202
28 36 250 259 222 217 204 173 183 147 133 211 229 357 375 354 282 180 168 193 190 196 209 289 342 365 320 283 253 254 214 208
34 119 256 192 181 174 251 221 191 163 159 195 350 386 331 263 243 218 195 229 187 200 190 303 307 350 324 294 275 219 204 194
71 176 154 120 108 130 132 70 110 143 167 175 292 280 241 207 182 176 144 143 173 175 245 370 308 328 307 316 273 237 197 183
221 183 150 117 76 109 112 78 111 97 119 149 225 212 207 218 155 144 183 164 194 205 297 339 305 323 325 288 256 216 190 186
176 185 104 139 176 179 161 108 111 130 82 106 161 203 172 113 81 127 166 205 221 241 307 320 305 319 294 274 231 198 173 210
86 116 172 210 240 206 137 101 133 76 93 95 147 191 174 102 47 117 255 219 185 193 242 284 308 317 278 239 235 189 196 187
129 110 159 183 106 87 79 74 88 61 67 103 173 263 179 96 59 154 280 192 138 170 223 219 306 269 247 218 203 147 200 198
132 131 138 46 11 29 39 54 39 42 50 23 172 225 136 80 78 176 199 160 150 206 199 221 283 242 233 220 186 149 160 188
235 227 151 113 29 -2 20 5 16 38 60 67 200 211 121 92 94 171 250 179 163 202 163 175 222 213 209 191 181 166 147 163
233 163 103 59 39 14 2 3 -10 28 70 192 268 207 152 107 129 185 275 183 146 145 147 172 201 219 220 194 181 185 166 169
120 84 42 45 32 7 -12 -6 -25 28 87 119 174 181 173 140 159 239 260 142 105 108 135 141 150 162 194 171 156 170 170 181
62 43 28 18 19 8 1 2 24 60 109 95 169 161 149 123 166 221 177 129 98 123 170 151 153 144 170 142 140 157 144 169
58 36 10 14 16 28 18 27 36 82 117 134 158 128 120 124 205 222 126 139 139 128 144 133 125 110 101 89 78 106 97 109
53 48 38 40 42 30 19 36 58 101 149 111 145 106 150 174 209 177 116 149 150 115 102 103 85 74 64 74 77 92 88 104
47 40 32 38 33 32 21 20 59 115 190 81 156 112 114 172 199 169 164 157 150 131 106 90 77 79 61 27 51 60 77 84
20 17 28 42 58 42 18 11 35 109 285 375 236 144 129 143 188 162 180 158 143 127 106 102 95 129 68 47 25 45 49 51

GFSFLT1_con_3kmhel_117.txt.gz
Helicity
104 120 71 43 96 108 228 352 381 363 370 313 216 187 300 253 218 226 201 219 223 241 235 202 219 235 284 311 277 269 263 198
129 78 81 109 125 180 192 364 379 414 401 327 336 227 197 273 280 238 223 214 242 202 211 225 239 262 279 310 289 275 307 281
108 94 91 165 256 335 356 248 288 270 262 227 277 274 229 220 255 308 335 301 286 197 166 214 254 321 316 326 331 321 308 294
123 173 254 302 292 290 297 315 233 195 170 227 314 304 319 296 301 380 362 313 286 211 191 211 262 336 344 323 318 308 293 271
163 138 281 339 321 295 273 285 341 310 237 197 278 299 304 338 365 414 370 237 230 236 202 207 261 308 331 321 299 275 295 263
229 166 256 202 285 311 269 266 265 284 253 197 269 318 271 363 401 360 313 263 224 275 215 246 247 297 299 321 311 316 306 288
195 233 366 525 546 520 490 460 387 325 360 303 127 227 292 360 333 302 230 179 250 269 263 252 240 285 269 273 291 305 324 244
446 600 508 504 482 446 465 454 342 271 164 171 191 209 208 296 302 271 204 131 161 212 299 261 280 305 262 259 289 307 272 238
484 431 412 325 291 259 188 203 158 84 84 61 34 125 206 258 221 207 172 153 138 207 264 259 261 269 262 267 291 284 240 203
312 303 344 328 143 47 58 71 27 38 52 42 32 53 133 192 222 176 175 133 177 222 274 232 227 254 260 258 270 256 220 179
482 394 300 255 199 57 -1 -13 -2 7 31 29 52 85 130 140 226 203 169 144 229 219 238 224 220 236 251 260 252 211 172 165
338 276 241 188 136 76 24 4 -7 -12 3 31 54 81 104 123 221 184 182 180 225 234 231 213 218 240 248 263 231 200 154 156
250 192 158 115 69 18 -2 -28 -19 -14 14 26 60 97 101 158 192 175 181 199 272 238 178 169 172 204 226 236 248 204 148 137
160 113 84 55 31 -2 -12 -19 -16 -47 -19 18 48 70 81 162 148 137 159 258 329 243 154 121 168 181 200 203 196 176 143 151
118 77 42 21 -1 -3 3 9 -8 -42 -32 32 50 37 76 125 134 141 131 302 273 219 111 136 158 173 165 177 179 184 170 139
25 50 47 21 13 24 28 18 4 -20 -8 47 70 26 61 130 124 133 138 236 277 205 144 165 164 152 143 145 157 159 179 159
64 67 56 32 14 14 37 44 7 -8 11 44 93 44 31 109 114 102 155 266 319 260 188 181 156 128 97 99 110 107 127 97
64 59 54 31 26 34 39 13 -9 -5 12 55 59 177 84 103 111 128 155 269 268 233 187 166 136 106 82 76 95 96 107 94
55 55 61 54 41 56 41 24 2 8 33 86 62 177 172 136 149 157 205 261 248 187 183 168 164 167 87 72 72 83 90 68

GFSFLT1_con_3kmhel_123.txt.gz
Helicity
114 127 135 134 128 133 190 262 242 256 281 263 261 241 198 190 170 175 164 159 157 178 183 189 196 199 186 186 180 188 161 164
145 122 147 140 126 161 186 226 226 290 329 344 282 213 200 196 212 200 177 171 165 174 181 191 210 207 206 199 205 176 181 212
160 135 130 113 195 165 219 240 254 300 320 302 316 278 241 293 225 172 185 193 200 205 205 201 192 205 205 225 215 225 220 249
152 139 143 172 181 264 260 241 276 284 315 415 436 442 350 301 233 199 189 205 224 226 225 229 217 230 223 256 247 248 250 251
117 137 255 296 306 314 348 382 433 446 427 419 400 370 323 261 198 192 199 218 236 260 263 245 230 224 216 253 249 230 267 261
160 155 205 371 457 529 555 587 581 510 501 343 312 288 229 175 205 217 250 242 247 260 273 265 294 259 207 247 269 251 264 290
334 452 469 590 628 689 688 713 699 612 569 482 425 384 257 263 219 217 216 270 281 266 286 279 243 274 258 231 244 242 254 265
668 710 759 797 802 756 663 598 611 580 552 512 466 432 307 271 236 182 201 234 248 265 286 306 261 258 245 253 271 265 257 273
796 784 818 749 735 706 641 577 552 527 450 341 234 181 179 191 192 196 163 214 232 236 247 239 240 249 241 228 268 264 290 279
611 716 679 657 634 571 451 375 333 336 294 246 206 192 179 155 155 155 129 167 187 206 221 228 246 227 195 222 262 262 261 252
401 446 530 455 458 408 326 225 164 126 92 79 99 47 73 109 125 108 146 148 135 186 212 243 239 201 201 220 243 258 245 242
605 593 492 510 478 416 332 351 296 213 83 51 37 9 21 69 87 97 116 131 116 136 201 239 233 201 212 241 218 263 235 241
618 558 609 562 411 309 245 227 193 148 133 138 143 139 106 95 86 94 104 117 103 120 170 216 212 183 202 221 207 250 244 265
604 473 369 242 147 146 123 100 78 93 114 115 94 87 76 87 74 81 114 121 101 120 154 200 221 183 198 209 217 249 254 247
272 390 255 293 155 88 104 101 105 101 79 81 100 103 80 65 62 77 101 119 154 144 139 189 215 187 193 241 242 244 241 209
480 356 266 173 146 115 141 137 136 125 96 77 85 88 76 55 50 63 87 117 140 133 149 186 175 187 243 239 206 229 190 207
167 127 143 145 163 152 138 153 153 139 98 52 43 59 65 61 65 73 78 90 82 90 117 131 163 203 202 204 215 198 170 196
76 101 100 113 119 109 103 98 89 70 68 60 50 58 56 76 91 92 104 105 83 110 106 149 187 209 193 189 178 199 173 182
41 45 70 74 74 74 66 28 24 33 25 18 15 54 76 88 116 134 148 133 118 123 130 108 196 200 190 137 167 204 174 173